Regional Weather Roundup
Issued by NWS New Orleans/Baton Rouge, LA

Home | Current Version | Previous Version | Text Only | Print | Product List | Glossary Off
Versions: 1 2 3 4 5 6 7 8 9 10 11 12 13 14 15 16 17 18 19 20 21 22 23 24 25 26 27 28 29 30 31 32 33 34 35 36 37 38 39 40 41 42 43 44 45 46 47 48 49 50

463
ASUS44 KLIX 272301
RWRLIX
NEW ORLEANS REGIONAL WEATHER ROUNDUP
NATIONAL WEATHER SERVICE NEW ORLEANS LA
500 PM CST FRI FEB 27 2015

NOTE: "FAIR" INDICATES FEW OR NO CLOUDS BELOW 12,000 FEET WITH NO
      SIGNIFICANT WEATHER AND/OR OBSTRUCTIONS TO VISIBILITY.
      SKY/WX - SKY CONDITION AND SIGNIFICANT WEATHER.
      TMP - AIR TEMPERATURE.     DP    - DEWPOINT TEMPERATURE.
      RH  - RELATIVE HUMIDITY.   PRES  - PRESSURE.
      HI  - HEAT INDEX.          WCI   - WIND CHILL INDEX.

*  THESE STATIONS ARE NOT NWS OR FAA STATIONS AND ARE NOT UNDER
   NWS QUALITY CONTROL.

LAZ038-040-048-061>063-065>067-069-280000-
SOUTHEAST LOUISIANA

CITY           SKY/WX    TMP DP  RH WIND       PRES   REMARKS
N.O. AUDUBON     N/A     53  38  57 MISG        N/A
N.O. INTL ARPT MOSUNNY   51  33  50 N13       30.31F
N.O. LAKEFRONT SUNNY     54  34  46 N12       30.32S
SLIDELL        SUNNY     52  32  46 N10       30.32R
BATON ROUGE    SUNNY     52  32  46 NE9       30.32S
BOOTHVILLE     PTSUNNY   50  39  66 NE7       30.31R
BELLE CHASSE   MOSUNNY   53  31  42 NE8       30.30S
BOGALUSA*        N/A     49  32  50 N8        30.37R
GALLIANO*      PTCLDY    54  34  47 NE5       30.30S
NEW ROADS*       N/A     52  32  46 N7        30.33S
GONZALES*      NOT AVBL
HAMMOND*       NOT AVBL
HOUMA*         SUNNY     52  34  50 NE14      30.30
PORT FOURCHON* CLEAR     48  37  66 NE15      30.33R

$$

MSZ070-080>082-280000-
SOUTHERN MISSISSIPPI

CITY           SKY/WX    TMP DP  RH WIND       PRES   REMARKS
MCCOMB         SUNNY     48  27  44 E7        30.35S
GULFPORT       SUNNY     55  29  36 NE8       30.31R
BILOXI         SUNNY     55  31  40 NE6       30.31R
PASCAGOULA     CLEAR     55  30  38 N10       30.30R
STENNIS ARPT*  SUNNY     52  28  40 N9        30.32R

$$

COASTAL OBSERVATIONS
LAKE AND NEARSHORE STATIONS

STATION/POSITION TIME  TEMP    WIND        PRES    WAVE
                       AIR SEA DIR/SP/G            HT/PER
                 (UTC) (F)     (DEG/KT/KT) (MB)    (FT/S)
PASCAGOULA       2219   56      20/  8/ 13 1024.9
WAVELAND YACHT   2219   53 49  350/ 10/ 11 1025.8
GRAND ISLE       2219   48 52   50/ 11/ 15 1026.2
SOUTHWEST PASS   2219   55 48   40/ 18/ 22 1025.1
NEW CANAL        2219   49     350/  8/ 10 1026.9
SHELL BEACH      2219   50 51   40/  8/ 10 1026.2

OFFSHORE STATIONS

STATION/POSITION TIME  TEMP    WIND        PRES    WAVE
                       AIR SEA DIR/SP/G            HT/PER
                 (UTC) (F)     (DEG/KT/KT) (MB)    (FT/S)
64 S DAUPHIN ISL 2229   54 69   60/ 19/ 23 1024.9    5/ 7

$$




USA.gov is the U.S. government's official web portal to all federal, state and local government web resources and services.